Weather Roundup
Issued by NWS Springfield, MO

Home | Current Version | Previous Version | Text Only | Print | Product List | Glossary On
Versions: 1 2 3 4 5 6 7 8 9 10 11 12 13 14 15 16 17 18 19 20 21 22 23 24 25 26 27 28 29 30 31 32 33 34 35 36 37 38 39 40 41 42 43 44 45 46 47 48 49 50
000
NZUS99 KSGF 261507
HRRSGF

HOURLY WEATHER
NATIONAL WEATHER SERVICE SPRINGFIELD MO
1000 AM CDT FRI MAY 26 2017

......SGF CWA......

CITY           SKY/WX    TMP DP  RH WIND       PRES   REMARKS
SPRINGFIELD    SUNNY     74  64  71 S16G24    29.73S
JOPLIN         SUNNY     77  67  71 S12       29.70S
WEST PLAINS    SUNNY     71  63  75 S9G20     29.80F
ROLLA          SUNNY     70  66  87 SW8       29.75R
OSAGE BEACH    MOSUNNY   71  65  81 S7        29.75R
BRANSON        PTSUNNY   72  63  73 SE12      29.78S

......SURROUNDING SGF CWA......

CITY           SKY/WX    TMP DP  RH WIND       PRES   REMARKS
CHANUTE        SUNNY     76  64  66 S5        29.71R
PARSONS        SUNNY     77  64  64 S9        29.70R
COFFEYVILLE    SUNNY     77  69  76 S9        29.68R
EMPORIA        SUNNY     72  63  73 N7        29.73R
GROVE OK       MOSUNNY   77  66  69 S12G17    29.71S
ROGERS AR      MOSUNNY   77  65  66 S13G21    29.75F
SILOAM SPRINGS PTSUNNY   75  63  64 S16       29.74S
HARRISON AR      N/A     72  62  71 S10       29.79S
NEAR YELLVILLE CLOUDY    72  59  64 SE9       29.77F

......KANSAS AND MISSOURI......

CITY           SKY/WX    TMP DP  RH WIND       PRES   REMARKS
KANSAS CTY INT MOSUNNY   73  63  70 W7        29.74R
DOWNTOWN KC    SUNNY     74  63  68 VRB3      29.72R
COLUMBIA       MOSUNNY   72  64  76 CALM      29.75S
SEDALIA        MOSUNNY   75  66  73 N3        29.75S
ST JOSEPH      SUNNY     74  63  68 CALM      29.74R
ST LOUIS       PTSUNNY   74  60  61 SE14      29.74F
SPIRIT OF STL  CLOUDY    77  64  64 S9G17     29.72F
KIRKSVILLE     CLOUDY    68  64  87 SW6       29.73R
WICHITA        MOSUNNY   73  63  70 N10       29.74R
TOPEKA         SUNNY     74  64  71 CALM      29.73R
OLATHE         SUNNY     72  64  76 SE6       29.74R

......TENNESSEE......

CITY           SKY/WX    TMP DP  RH WIND       PRES   REMARKS
MEMPHIS        MOSUNNY   76  63  64 SW16G29   29.91F
NASHVILLE      CLOUDY    73  56  54 VRB7      29.99R

......ARKANSAS.......

CITY           SKY/WX    TMP DP  RH WIND       PRES   REMARKS
FAYETTEVILLE   MOSUNNY   74  65  73 S16G23    29.75R
FT SMITH       MOSUNNY   80  63  55 S8        29.75R
LITTLE ROCK    DRIZZLE   69  66  90 SW9       29.88R

......OKLAHOMA.......

CITY           SKY/WX    TMP DP  RH WIND       PRES   REMARKS
TULSA          PTSUNNY   79  68  69 S14       29.66R
MCALESTER      PTSUNNY   80  70  71 S13G23    29.72R
OKLAHOMA CITY  MOSUNNY   77  56  48 W10       29.70R

......IOWA............

CITY           SKY/WX    TMP DP  RH WIND       PRES   REMARKS
DES MOINES     CLOUDY    64  59  83 VRB3      29.73F
QUAD CITIES    CLOUDY    69  55  60 E13G22    29.73S

......ILLINOIS........

CITY           SKY/WX    TMP DP  RH WIND       PRES   REMARKS
QUINCY         SUNNY     71  62  73 W10       29.73F
CHICAGO        PTSUNNY   68  55  63 SE12      29.86S




USA.gov is the U.S. government's official web portal to all federal, state and local government web resources and services.